Regional Weather Roundup
Issued by NWS Albany, NY

Home | Current Version | Previous Version | Text Only | Print | Product List | Glossary On
Versions: 1 2 3 4 5 6 7 8 9 10 11 12 13 14 15 16 17 18 19 20 21 22 23 24 25 26 27 28 29 30 31 32 33 34 35 36 37 38 39 40 41 42 43 44 45 46 47 48 49 50
000
ASUS41 KALY 020610
RWRALY

NEW YORK STATE HOURLY WEATHER ROUNDUP
NATIONAL WEATHER SERVICE ALBANY NY
200 AM EDT THU APR 02 2015

NOTE: "FAIR" INDICATES FEW OR NO CLOUDS BELOW 12,000 FEET WITH NO
SIGNIFICANT WEATHER AND/OR NO OBSTRUCTIONS TO VISIBILITY.

NYZ032-033-038>043-046>054-057>066-NYZ062>081-020700-
EAST


CITY           SKY/WX    TMP DP  RH WIND       PRES   REMARKS
ALBANY         CLEAR     27  12  53 CALM      30.21R
GLENS FALLS    CLEAR     23  17  78 CALM      30.18S
POUGHKEEPSIE   CLEAR     26  17  68 CALM      30.22R
NEWBURGH       CLEAR     30  19  64 CALM      30.22R
MONTGOMERY     CLEAR     26  19  74 S5        30.21R WCI  20
WHITE PLAINS   CLEAR     30  19  63 NW7       30.20S WCI  23
ISLIP          PTCLDY    31  19  61 W3        30.21R
NEW YORK CITY  CLEAR     43  12  28 CALM      30.22S
CENTRAL PARK   CLEAR     43   9  24 CALM      30.25S
$$

NYZ005>009-017-018-044>046-055-056-020700-
CENTRAL


CITY           SKY/WX    TMP DP  RH WIND       PRES   REMARKS
FULTON         CLOUDY    31  12  45 SE5       30.14F WCI  26
SYRACUSE       CLOUDY    28  16  60 E5        30.15F WCI  23
ROME           PTCLDY    24  14  65 SE7       30.19F WCI  16
ELMIRA         CLEAR     25  20  81 CALM      30.17R
BINGHAMTON     CLEAR     29  13  51 SE6       30.13F WCI  23
MONTICELLO     CLEAR     25  12  58 NW3       30.19R
$$

NYZ026>034-041>043-020700-
NORTH


CITY           SKY/WX    TMP DP  RH WIND       PRES   REMARKS
WATERTOWN      CLOUDY    32  14  47 S3        30.12F
FORT DRUM      NOT AVBL
MASSENA        MOCLDY    27  12  53 SW6       30.14F WCI  20
SARANAC LAKE   PTCLDY    13   6  74 CALM      30.06F
PLATTSBURGH    PTCLDY    23  14  68 CALM      30.13F
$$

NYZ001>004-010>016-019>021-020700-
WEST


CITY           SKY/WX    TMP DP  RH WIND       PRES   REMARKS
NIAGARA FALLS  CLOUDY    35  28  75 E5        30.08F WCI  31
BUFFALO        CLOUDY    39  29  67 SE7       30.08F WCI  34
DUNKIRK        PTCLDY    48  31  51 S16G24    30.06F
JAMESTOWN      PTCLDY    36  27  69 S6        30.08S WCI  31
WELLSVILLE     CLEAR     38  27  64 SW6       30.11S WCI  33
ROCHESTER      MOCLDY    33  19  56 S5        30.11F WCI  29
PENN YAN       PTCLDY    30  20  66 S3        30.13F
$$

             KEY
       WCI = WIND CHILL INDEX
       VSB = VISIBILITY
       HX  = HEAT INDEX
$$



USA.gov is the U.S. government's official web portal to all federal, state and local government web resources and services.